Flag Weather past 2 weeks in Cheyenne, Wyoming, U.S.A.

Now
49 °F

Clear.


Feels Like: 40 °F
Forecast: 40 / 55 °F
Wind: 35 mph from West

Location: Cheyenne Airport

Current Time: Nov 27, 2014 at 8:33:12 PM

Latest Report: Nov 27, 2014 at 7:53 PM


Visibility: 10 mi

Pressure: 29.96 "Hg

Humidity: 33%

Dew point: 21 °F

Location of CheyenneLocation

Historic Weather in Cheyenne — Graph

°F

Cheyenne temperature yesterday

Maximum temperature yesterday: 40 °F (at 11:53 PM)
Minimum temperature yesterday: 22 °F (at 3:53 AM)
Average temperature yesterday: 26 °F

Past Weeks' High & Low Weather Summary

 TemperatureHumidityPressure
High56 °F (Nov 27, 12:53 PM)89% (Nov 25, 7:01 PM)30.80 "Hg (Nov 25, 7:01 PM)
Low-13 °F (Nov 13, 1:53 AM)17% (Nov 17, 12:53 PM)29.49 "Hg (Nov 22, 9:53 PM)
Average27 °F53%30.08 "Hg
* Reported Nov 12 6:53 PM — Nov 27 6:53 PM, Cheyenne, Weather by CustomWeather, © 2014

Note: Actual official high and low records may vary slightly from our data, if they occured in-between our weather recording intervals... More about our weather records

Advertising

Cheyenne weather history for previous 24 hours

 ConditionsComfort  
Time TempWeatherWind HumidityBarometerVisibility
6:53 PM
Nov 27
48 °FClear.22 mph36%29.99 "Hg10 mi
5:53 PM50 °FClear.21 mph33%30.01 "Hg10 mi
4:53 PM51 °FPassing clouds.21 mph32%30.01 "Hg10 mi
3:53 PM53 °FSunny.29 mph28%29.99 "Hg10 mi
2:53 PM56 °FSunny.25 mph27%29.98 "Hg10 mi
1:53 PM56 °FSunny.21 mph27%29.97 "Hg10 mi
12:53 PM56 °FSunny.16 mph27%30.01 "Hg10 mi
11:53 AM53 °FSunny.28 mph27%30.05 "Hg10 mi
10:53 AM52 °FSunny.26 mph27%30.16 "Hg10 mi
9:53 AM50 °FSunny.22 mph27%30.19 "Hg10 mi
8:53 AM47 °FSunny.23 mph32%30.20 "Hg10 mi
7:53 AM46 °FSunny.22 mph33%30.20 "Hg10 mi
6:53 AM45 °FClear.26 mph35%30.18 "Hg10 mi
5:53 AM44 °FClear.20 mph37%30.17 "Hg10 mi
4:53 AM43 °FClear.21 mph40%30.18 "Hg10 mi
3:53 AM42 °FClear.15 mph43%30.19 "Hg10 mi
2:53 AM43 °FClear.23 mph43%30.19 "Hg10 mi
1:53 AM43 °FClear.22 mph47%30.21 "Hg10 mi
12:53 AM43 °FClear.12 mph49%30.23 "Hg10 mi
11:53 PM
Nov 26
40 °FClear.14 mph58%30.25 "Hg10 mi
10:53 PM25 °FClear.No wind81%30.34 "Hg10 mi
9:53 PM26 °FClear.3 mph81%30.34 "Hg10 mi
8:53 PM24 °FClear.3 mph84%30.35 "Hg10 mi
Weather by CustomWeather, © 2014

See weather overviewHow to use our weather pages